This demonstration page uses our WeatherBlox Daily Observations layout. Learn more.

Left ArrowRight Arrow

Hourly Observations for November 15, 2020

Temp ( °F °C ) Dew Point ( °F °C ) Humidity (%) Winds ( mph kmh ) Pressure ( in mb ) Visibility ( mi km ) Precip ( " mm )
12:56 am 00:56 Clear 37 2.8 25 -3.9 62 62 WNW 20 31 29.91 1013 10 16 0.00 0.00
1:56 am 01:56 Clear 38 3.3 23 -5 55 55 WNW 22 35 29.93 1014 10 16 0.00 0.00
2:56 am 02:56 Clear 35 1.7 23 -5 61 61 W 16 26 29.97 1015 10 16 0.00 0.00
3:56 am 03:56 Clear 33 0.6 22 -5.6 64 64 W 16 26 29.99 1016 10 16 0.00 0.00
4:56 am 04:56 Clear 34 1.1 20 -6.7 56 56 WNW 18 30 30.00 1016 10 16 0.00 0.00
5:56 am 05:56 Clear 33 0.6 19 -7.2 56 56 W 16 26 30.03 1017 10 16 0.00 0.00
6:56 am 06:56 Clear 32 0 18 -7.8 56 56 W 16 26 30.05 1018 10 16 0.00 0.00
7:56 am 07:56 Sunny 34 1.1 17 -8.3 50 50 WNW 15 24 30.07 1018 10 16 0.00 0.00
8:56 am 08:56 Sunny 37 2.8 15 -9.4 41 41 WNW 20 31 30.10 1019 10 16 0.00 0.00
9:56 am 09:56 Sunny 41 5 15 -9.4 35 35 W 20 31 30.12 1020 10 16 0.00 0.00
10:56 am 10:56 Sunny 45 7.2 14 -10 29 29 WNW 18 30 30.13 1020 10 16 0.00 0.00
11:56 am 11:56 Sunny 48 8.9 12 -11.1 23 23 WNW 22 35 30.13 1020 10 16 0.00 0.00
12:56 pm 12:56 Sunny 49 9.4 11 -11.7 21 21 W 15 24 30.11 1020 10 16 0.00 0.00
1:56 pm 13:56 Sunny 51 10.6 11 -11.7 20 20 W 16 26 30.10 1019 10 16 0.00 0.00
2:56 pm 14:56 Sunny 52 11.1 12 -11.1 20 20 W 16 26 30.10 1019 10 16 0.00 0.00
3:56 pm 15:56 Sunny 52 11.1 14 -10 22 22 W 12 19 30.10 1019 10 16 0.00 0.00
4:56 pm 16:56 Sunny 50 10 15 -9.4 25 25 W 8 13 30.11 1020 10 16 0.00 0.00
5:56 pm 17:56 Clear 44 6.7 17 -8.3 34 34 SW 7 11 30.11 1020 10 16 0.00 0.00
6:56 pm 18:56 Clear 38 3.3 17 -8.3 43 43 SSW 6 9 30.12 1020 10 16 0.00 0.00
7:56 pm 19:56 Clear 34 1.1 16 -8.9 48 48 S 8 13 30.13 1020 10 16 0.00 0.00
8:56 pm 20:56 Clear 31 -0.6 19 -7.2 61 61 S 9 15 30.11 1020 10 16 0.00 0.00
9:56 pm 21:56 Clear 35 1.7 17 -8.3 48 48 SSW 12 19 30.09 1019 10 16 0.00 0.00
10:56 pm 22:56 Clear 38 3.3 16 -8.9 41 41 SSW 13 20 30.08 1019 10 16 0.00 0.00
11:56 pm 23:56 Clear 36 2.2 16 -8.9 44 44 SW 12 19 30.07 1018 10 16 0.00 0.00

Powered by AerisWeather